सभी
Prairie Creek Airport (Leesville, LA) 57LS मौसम
There is no TAF data available at 57LS or any nearby airports.
There is no METAR data available at 57LS. Showing METAR data for KDRI (26 mi S).
Recent DRI METAR history (no data for 57LS)
| Date | Time (CDT) | Flight Rules | Wind Dir. | Speed | Type | Height AGL (ft) | Visibility | Temp (°C) | Temp (°F) | Dew Point (°C) | Dew Point (°F) | Rel. Humid. | Pressure | Density Altitude | Remarks |
|---|---|---|---|---|---|---|---|---|---|---|---|---|---|---|---|
| 08-मई | 01:55 | VFR | Calm | 10 miles | 18° | 64° | 17° | 62° | 95% | 29.96 in Hg | 521 ft | ||||
| 08-मई | 01:15 | VFR | 80° | 3 kt | 10 miles | 18° | 64° | 17° | 62° | 95% | 29.96 in Hg | 521 ft | |||
| 08-मई | 00:55 | VFR | 110° | 4 kt | 10 miles | 18° | 64° | 17° | 62° | 94% | 29.96 in Hg | 521 ft | |||
| 08-मई | 00:35 | VFR | 110° | 3 kt | 10 miles | 18° | 64° | 17° | 62° | 94% | 29.96 in Hg | 521 ft | |||
| 08-मई | 00:15 | VFR | 100° | 4 kt | 10 miles | 18° | 64° | 17° | 62° | 93% | 29.96 in Hg | 521 ft | |||
| 07-मई | 23:55 | VFR | 100° | 4 kt | 10 miles | 18° | 64° | 17° | 62° | 92% | 29.98 in Hg | 501 ft | |||
| 07-मई | 23:35 | VFR | 100° | 4 kt | 10 miles | 18° | 64° | 17° | 62° | 92% | 29.99 in Hg | 491 ft | |||
| 07-मई | 23:15 | VFR | 60° | 3 kt | 10 miles | 18° | 64° | 17° | 62° | 92% | 29.99 in Hg | 491 ft | |||
| 07-मई | 22:55 | VFR | 40° | 3 kt | 10 miles | 19° | 66° | 17° | 62° | 90% | 30.00 in Hg | 601 ft | |||
| 07-मई | 22:35 | VFR | 70° | 3 kt | 10 miles | 19° | 66° | 17° | 62° | 88% | 29.99 in Hg | 611 ft | |||
| 07-मई | 22:15 | VFR | 50° | 4 kt | 10 miles | 19° | 66° | 17° | 62° | 89% | 29.99 in Hg | 611 ft | |||
| 07-मई | 21:55 | VFR | Calm | 10 miles | 19° | 66° | 17° | 62° | 88% | 29.98 in Hg | 621 ft | ||||
| 07-मई | 21:35 | VFR | 90° | 4 kt | 10 miles | 19° | 66° | 17° | 62° | 87% | 29.96 in Hg | 641 ft | |||
| 07-मई | 21:15 | VFR | Calm | 10 miles | 19° | 66° | 17° | 62° | 86% | 29.98 in Hg | 621 ft | ||||
| 07-मई | 20:55 | VFR | 30° | 3 kt | 10 miles | 19° | 66° | 17° | 62° | 86% | 29.98 in Hg | 621 ft | |||
| 07-मई | 20:35 | VFR | 40° | 4 kt | 10 miles | 19° | 66° | 17° | 62° | 87% | 29.97 in Hg | 631 ft | |||
| 07-मई | 20:15 | VFR | 50° | 3 kt | 10 miles | 20° | 68° | 17° | 62° | 82% | 29.97 in Hg | 751 ft | |||
| 07-मई | 19:55 | VFR | 70° | 4 kt | 10 miles | 20° | 68° | 16° | 60° | 78% | 29.95 in Hg | 771 ft | |||
| 07-मई | 19:15 | VFR | 40° | 5 kt | 10 miles | 21° | 69° | 16° | 60° | 72% | 29.95 in Hg | 891 ft | |||
| 07-मई | 18:55 | VFR | 20° | 5 kt | 10 miles |
21° | 69° | 16° | 60° | 69% | 29.97 in Hg | 871 ft | |||
| 07-मई | 18:35 | VFR | 30° | 5 kt | 9 miles | 22° | 71° | 15° | 59° | 64% | 29.96 in Hg | 1,001 ft | |||
| 07-मई | 18:15 | VFR | 60° | 5 kt | 9 miles |
22° | 71° | 14° | 57° | 61% | 29.95 in Hg | 1,011 ft | |||
| 07-मई | 17:55 | VFR | 40° | 6 kt | 10 miles | 23° | 73° | 15° | 59° | 59% | 29.95 in Hg | 1,131 ft | |||
| 07-मई | 17:35 | VFR | 40° | 8 kt | 10 miles | 23° | 73° | 14° | 57° | 57% | 29.95 in Hg | 1,131 ft |
लॉगिन
| Your browser is unsupported. अपना ब्राऊजर अपग्रेड करें |
